Location: Sungai Jaoh
(2.9167°N, 113.9167°E)
Time: 06:26:17
(UTC+00:00)

Cosmos 1937 Rocket - Pass Details

Date: 30 November 2020
Orbit: 745 x 781 km, 74.0° (Epoch: 25 January)

Event Time Altitude Azimuth Distance (km) Brightness Sun altitude
Rises 20:53:28 0° 201° (SSW) 3,184 6.7 -19.6°
Reaches altitude 10° 20:55:52 10° 206° (SSW) 2,258 5.9 -19.0°
Maximum altitude 21:00:50 53° 282° (WNW) 908 3.5 -17.9°
Drops below altitude 10° 21:05:48 10° 359° (N) 2,254 5.7 -16.7°
Sets 21:08:12 0° 4° (N) 3,179 6.5 -16.2°
